NAC107 KVCV-KMCI

Flight info

Callsign NAC107
Flight time N/A
Altitude 39000
Route HELDE J6 HEC J64 RSK TBE ICT EMP JHAWK8
Aircraft R722/M-SDFHIRWY/S

Departure

Time 2026-04-30 21:56
Airport Southern California Logistics Airport (KVCV)

Arrival

Time N/A
Airport Kansas City International Airport (KMCI)
Time Latitude Longitude Altitude Speed Heading
2026-04-30 21:28 34.59208 -117.37064 2882 ft 0 kts 345°
2026-04-30 21:45 34.59225 -117.37072 2882 ft 5 kts 332°
2026-04-30 21:45 34.59260 -117.37091 2882 ft 6 kts 348°
2026-04-30 21:46 34.59304 -117.37084 2883 ft 6 kts 26°
2026-04-30 21:46 34.59326 -117.37038 2884 ft 8 kts 81°
2026-04-30 21:46 34.59329 -117.36960 2884 ft 11 kts 89°
2026-04-30 21:46 34.59330 -117.36859 2884 ft 12 kts 90°
2026-04-30 21:47 34.59373 -117.36791 2885 ft 6 kts 17°
2026-04-30 21:47 34.59382 -117.36788 2886 ft 0 kts 14°
2026-04-30 21:52 34.59386 -117.36787 2886 ft 2 kts 14°
2026-04-30 21:52 34.59421 -117.36777 2886 ft 7 kts 11°
2026-04-30 21:52 34.59476 -117.36764 2887 ft 9 kts 10°
2026-04-30 21:53 34.59547 -117.36748 2888 ft 12 kts 11°
2026-04-30 21:53 34.59633 -117.36727 2890 ft 14 kts 10°
2026-04-30 21:53 34.59732 -117.36705 2891 ft 16 kts 11°
2026-04-30 21:53 34.59843 -117.36678 2893 ft 15 kts 11°
2026-04-30 21:54 34.59891 -117.36668 2894 ft 0 kts
2026-04-30 21:55 34.59920 -117.36666 2894 ft 7 kts 354°
2026-04-30 21:55 34.59968 -117.36696 2894 ft 9 kts 308°
2026-04-30 21:55 34.59966 -117.36755 2894 ft 5 kts 231°
2026-04-30 21:55 34.59916 -117.36820 2894 ft 41 kts 223°
2026-04-30 21:56 34.59502 -117.37312 2884 ft 123 kts 225°
2026-04-30 21:56 34.58752 -117.38224 3077 ft 169 kts 228°
2026-04-30 21:56 34.57962 -117.39272 3957 ft 173 kts 232°
2026-04-30 21:56 34.57125 -117.40307 4943 ft 173 kts 220°
2026-04-30 21:57 34.56127 -117.41229 5732 ft 197 kts 219°
2026-04-30 21:57 34.54939 -117.42361 6326 ft 238 kts 218°
2026-04-30 21:57 34.53542 -117.43716 7030 ft 275 kts 219°
2026-04-30 21:57 34.51892 -117.45324 7201 ft 336 kts 219°
2026-04-30 21:58 34.49902 -117.47268 7141 ft 397 kts 219°
2026-04-30 21:58 34.47624 -117.49541 7051 ft 449 kts 221°
2026-04-30 21:58 34.46571 -117.50678 7644 ft 304 kts 224°
2026-04-30 21:58 34.45440 -117.52727 7568 ft 291 kts 253°
2026-04-30 21:59 34.45344 -117.55119 7533 ft 285 kts 287°
2026-04-30 21:59 34.46288 -117.57159 7525 ft 278 kts 318°
2026-04-30 21:59 34.47959 -117.58232 7522 ft 277 kts 350°
2026-04-30 22:00 34.51447 -117.56917 7232 ft 274 kts 36°
2026-04-30 22:00 34.54400 -117.54048 6968 ft 275 kts 39°
2026-04-30 22:00 34.55864 -117.52616 6968 ft 268 kts 38°
2026-04-30 22:01 34.57338 -117.51176 6976 ft 273 kts 38°
2026-04-30 22:01 34.58794 -117.49753 6989 ft 270 kts 38°
2026-04-30 22:01 34.60262 -117.48315 6990 ft 272 kts 38°
2026-04-30 22:01 34.61720 -117.46884 6986 ft 274 kts 38°
2026-04-30 22:02 34.63184 -117.45447 6986 ft 273 kts 38°
2026-04-30 22:02 34.64647 -117.44009 6982 ft 271 kts 38°
2026-04-30 22:02 34.66123 -117.42555 6985 ft 272 kts 38°
2026-04-30 22:02 34.67579 -117.41113 7105 ft 267 kts 39°
2026-04-30 22:03 34.69027 -117.39659 7654 ft 271 kts 39°
2026-04-30 22:03 34.70396 -117.38061 8189 ft 279 kts 54°
2026-04-30 22:03 34.71101 -117.35880 8750 ft 282 kts 76°
2026-04-30 22:03 34.71291 -117.33506 9339 ft 285 kts 90°
2026-04-30 22:04 34.71219 -117.31084 9936 ft 288 kts 86°
2026-04-30 22:04 34.71385 -117.28658 10480 ft 290 kts 83°
2026-04-30 22:04 34.71867 -117.23738 11586 ft 300 kts 81°
2026-04-30 22:05 34.72126 -117.21101 12166 ft 328 kts 81°
2026-04-30 22:05 34.72415 -117.18246 12771 ft 353 kts 81°
2026-04-30 22:05 34.72712 -117.15221 13480 ft 364 kts 82°
2026-04-30 22:05 34.73006 -117.12181 14114 ft 368 kts 81°
2026-04-30 22:06 34.73301 -117.09084 14739 ft 370 kts 81°
2026-04-30 22:06 34.73949 -117.02777 16018 ft 382 kts 81°
2026-04-30 22:06 34.74256 -116.99561 16676 ft 385 kts 81°
2026-04-30 22:07 34.74558 -116.96316 17351 ft 388 kts 81°
2026-04-30 22:07 34.74871 -116.93039 18040 ft 391 kts 79°
2026-04-30 22:07 34.75214 -116.89746 18657 ft 395 kts 79°
2026-04-30 22:07 34.75549 -116.86416 19273 ft 398 kts 80°
2026-04-30 22:08 34.75878 -116.83094 19883 ft 403 kts 80°
2026-04-30 22:08 34.76204 -116.79647 20527 ft 406 kts 80°
2026-04-30 22:08 34.76513 -116.76264 21164 ft 410 kts 80°
2026-04-30 22:08 34.76860 -116.72809 21818 ft 413 kts 79°
2026-04-30 22:09 34.77204 -116.69324 22488 ft 417 kts 79°
2026-04-30 22:09 34.77544 -116.65809 23178 ft 420 kts 79°
2026-04-30 22:09 34.77886 -116.62264 23809 ft 424 kts 79°
2026-04-30 22:09 34.78222 -116.58689 24392 ft 428 kts 80°
2026-04-30 22:10 34.78570 -116.55078 24995 ft 431 kts 79°
2026-04-30 22:10 34.78906 -116.51443 25610 ft 435 kts 79°
2026-04-30 22:10 34.79275 -116.47832 26224 ft 436 kts 78°
2026-04-30 22:10 34.79911 -116.44236 26860 ft 435 kts 71°
2026-04-30 22:11 34.81955 -116.37322 28058 ft 437 kts 65°
2026-04-30 22:11 34.83034 -116.33835 28531 ft 443 kts 65°
2026-04-30 22:11 34.84119 -116.30313 29020 ft 447 kts 65°
2026-04-30 22:12 34.85209 -116.26753 29506 ft 451 kts 66°
2026-04-30 22:12 34.86290 -116.23152 30010 ft 454 kts 66°
2026-04-30 22:12 34.87367 -116.19524 30442 ft 457 kts 66°
2026-04-30 22:12 34.88445 -116.15872 30872 ft 459 kts 66°
2026-04-30 22:13 34.89521 -116.12258 31307 ft 461 kts 66°
2026-04-30 22:13 34.90615 -116.08575 31753 ft 463 kts 66°
2026-04-30 22:13 34.91715 -116.04885 32209 ft 464 kts 66°
2026-04-30 22:13 34.92819 -116.01190 32674 ft 465 kts 66°
2026-04-30 22:14 34.93929 -115.97487 33146 ft 465 kts 66°
2026-04-30 22:14 34.95026 -115.93781 33632 ft 465 kts 67°
2026-04-30 22:14 34.96106 -115.90062 34084 ft 465 kts 68°
2026-04-30 22:14 34.97177 -115.86341 34510 ft 465 kts 68°
2026-04-30 22:15 34.98245 -115.82621 34939 ft 464 kts 67°
2026-04-30 22:15 34.99331 -115.78927 35368 ft 462 kts 67°
2026-04-30 22:15 35.00395 -115.75288 35801 ft 461 kts 67°
2026-04-30 22:15 35.01460 -115.71593 36141 ft 462 kts 67°
2026-04-30 22:16 35.02512 -115.67888 36453 ft 463 kts 68°
2026-04-30 22:16 35.03563 -115.64170 36765 ft 464 kts 68°
2026-04-30 22:17 35.06765 -115.52987 37724 ft 466 kts 67°
2026-04-30 22:17 35.07835 -115.49248 38051 ft 467 kts 67°
2026-04-30 22:17 35.09974 -115.41762 38679 ft 467 kts 67°
2026-04-30 22:18 35.11050 -115.38018 38873 ft 469 kts 67°
2026-04-30 22:18 35.13223 -115.30469 38886 ft 476 kts 68°
2026-04-30 22:19 35.16446 -115.19031 38873 ft 475 kts 68°
2026-04-30 22:20 35.19644 -115.07581 38877 ft 475 kts 68°
2026-04-30 22:20 35.22859 -114.96129 38859 ft 475 kts 67°
2026-04-30 22:21 35.25027 -114.88492 38858 ft 476 kts 68°
2026-04-30 22:21 35.27177 -114.80895 38857 ft 475 kts 69°
2026-04-30 22:22 35.29327 -114.73248 38841 ft 475 kts 68°
2026-04-30 22:22 35.31472 -114.65586 38843 ft 475 kts 68°
2026-04-30 22:23 35.33602 -114.57925 38836 ft 475 kts 68°
2026-04-30 22:23 35.35736 -114.50262 38834 ft 476 kts 68°
2026-04-30 22:24 35.36861 -114.46198 38835 ft 475 kts 68°
2026-04-30 22:24 35.38998 -114.38534 38836 ft 476 kts 68°
2026-04-30 22:25 35.41130 -114.30820 38840 ft 481 kts 69°
2026-04-30 22:25 35.43242 -114.23045 38849 ft 480 kts 69°
2026-04-30 22:26 35.46396 -114.11404 38865 ft 480 kts 69°
2026-04-30 22:27 35.48504 -114.03637 38867 ft 479 kts 69°
2026-04-30 22:27 35.51725 -113.92079 38857 ft 479 kts 69°
2026-04-30 22:28 35.54955 -113.80460 38834 ft 479 kts 69°
2026-04-30 22:29 35.59223 -113.64922 38817 ft 480 kts 70°
2026-04-30 22:31 35.65794 -113.38348 38832 ft 484 kts 73°
2026-04-30 22:32 35.70328 -113.18395 38865 ft 484 kts 73°
2026-04-30 22:33 35.74823 -112.98447 38879 ft 486 kts 75°
2026-04-30 22:35 35.79359 -112.78413 38893 ft 486 kts 75°
2026-04-30 22:36 35.83828 -112.58247 38897 ft 488 kts 72°
2026-04-30 22:37 35.87366 -112.42151 38968 ft 491 kts 77°
2026-04-30 22:38 35.90899 -112.25766 39061 ft 494 kts 75°
2026-04-30 22:39 35.93571 -112.13560 39063 ft 494 kts 76°
2026-04-30 22:40 35.98997 -111.88753 38987 ft 499 kts 76°
2026-04-30 22:41 36.03297 -111.68031 38871 ft 500 kts 75°
2026-04-30 22:43 36.08557 -111.43099 38859 ft 499 kts 74°
2026-04-30 22:44 36.12160 -111.26578 38854 ft 499 kts 74°
2026-04-30 22:45 36.17480 -111.01600 38854 ft 505 kts 74°
2026-04-30 22:47 36.22823 -110.76399 38862 ft 508 kts 75°
2026-04-30 22:48 36.26353 -110.59476 38875 ft 509 kts 77°
2026-04-30 22:49 36.31757 -110.33983 38878 ft 514 kts 78°
2026-04-30 22:51 36.37131 -110.08263 38889 ft 518 kts 78°
2026-04-30 22:52 36.39884 -109.95317 38887 ft 519 kts 77°
2026-04-30 22:53 36.43398 -109.77948 38881 ft 519 kts 78°
2026-04-30 22:53 36.46089 -109.64788 38887 ft 524 kts 76°
2026-04-30 22:55 36.50478 -109.42886 38889 ft 528 kts 76°
2026-04-30 22:56 36.54067 -109.25051 38894 ft 533 kts 76°
2026-04-30 22:57 36.58559 -109.02594 38880 ft 541 kts 77°
2026-04-30 22:58 36.59454 -108.98127 38870 ft 537 kts 76°
2026-04-30 22:59 36.64781 -108.70965 38854 ft 542 kts 77°